Nagpur Sonegaon, India

12:38 AM IST on June 27, 2017 (GMT +0530)
Nagpur

Weather History for VANP - April, 2014

Change the Weather History Date:

Sunday, April 6, 2014

  Actual Average Record
Temperature  
Mean Temperature 88 °F -  
Max Temperature 106 °F 106 °F - ()
Min Temperature 69 °F 77 °F - ()
Cooling Degree Days 22    
Growing Degree Days 38 (Base 50)    
Moisture  
Dew Point 47 °F    
Average Humidity 23    
Maximum Humidity 43    
Minimum Humidity 8    
Precipitation  
Precipitation 0.00 in 0.01 in - ()
Sea Level Pressure  
Sea Level Pressure 29.80 in    
Wind  
Wind Speed 3 mph ()    
Max Wind Speed 7 mph    
Max Gust Speed -    
Visibility 2.9 miles    
Events      
T = Trace of Precipitation, MM = Missing Value Source: Averaged Metar Reports

Daily Weather History Graph

Daily Weather History Graph

Search for Another Location

Airport or City:

Trip Planner

Search our weather history database for the weather conditions in past years. The results will help you decide how hot, cold, wet, or windy it might be!

Date:

Astronomy

Apr. 06, 2014 Rise Set
Actual Time 6:02 AM IST 6:29 PM IST
Civil Twilight 5:40 AM IST 6:52 PM IST
Nautical Twilight 5:14 AM IST 7:18 PM IST
Astronomical Twilight 4:48 AM IST 7:44 PM IST
Moon 11:03 AM IST (4/6) 12:26 AM IST (4/7)
Length of Visible Light 13h 11m
Length of Day
12h 27m
Waxing Crescent, 40% of the Moon is Illuminated
Apr 6
Waxing Crescent
Apr 7
First Quarter
Apr 15
Full
Apr 22
Last Quarter
Apr 29
New

Hourly Weather History & Observations

Time (IST) Temp. Dew Point Humidity Pressure Visibility Wind Dir Wind Speed Gust Speed Precip Events Conditions
12:10 AM 82.4 °F 42.8 °F 25% 29.83 in 3.1 mi NNW 3.5 mph - N/A   Haze
12:40 AM 82.4 °F 42.8 °F 25% 29.83 in 3.1 mi NNW 4.6 mph - N/A   Haze
1:10 AM 80.6 °F 42.8 °F 26% 29.83 in 3.1 mi WSW 3.5 mph - N/A   Haze
1:40 AM 77.0 °F 42.8 °F 29% 29.80 in 3.1 mi West 3.5 mph - N/A   Haze
2:10 AM 77.0 °F 42.8 °F 29% 29.80 in 3.1 mi WNW 2.3 mph - N/A   Haze
2:30 AM 75 °F 57 °F 43% 29.76 in 1 mi WNW 2.3 mph - -   Haze
2:40 AM 77.0 °F 44.6 °F 32% 29.80 in 3.1 mi SW 2.3 mph - N/A   Haze
3:10 AM 80.6 °F 42.8 °F 26% 29.80 in 3.1 mi WNW 3.5 mph - N/A   Haze
3:40 AM 77.0 °F 44.6 °F 32% 29.80 in 3.1 mi NW 3.5 mph - N/A   Haze
4:10 AM 75.2 °F 44.6 °F 34% 29.80 in 3.1 mi North 3.5 mph - N/A   Haze
4:40 AM 71.6 °F 44.6 °F 38% 29.80 in 3.1 mi North 3.5 mph - N/A   Haze
5:10 AM 73.4 °F 44.6 °F 36% 29.83 in 3.1 mi NW 2.3 mph - N/A   Haze
5:30 AM 71 °F 52 °F 40% 29.79 in 1 mi NW 2.3 mph - -   Haze
5:40 AM 69.8 °F 44.6 °F 40% 29.83 in 3.1 mi NW 2.3 mph - N/A   Haze
6:10 AM 69.8 °F 44.6 °F 40% 29.83 in 3.1 mi NW 2.3 mph - N/A   Haze
6:40 AM 71.6 °F 44.6 °F 38% 29.86 in 3.7 mi SSW 2.3 mph - N/A   Unknown
7:10 AM 75.2 °F 44.6 °F 34% 29.86 in 3.7 mi North 2.3 mph - N/A   Unknown
7:40 AM 78.8 °F 50.0 °F 36% 29.89 in 3.1 mi Calm Calm - N/A   Haze
8:10 AM 86.0 °F 50.0 °F 29% 29.89 in 3.1 mi ENE 2.3 mph - N/A   Haze
8:30 AM 88 °F 51 °F 18% 29.84 in 2 mi NNE 2.3 mph - -   Haze
9:10 AM 93.2 °F 50.0 °F 23% 29.89 in 3.1 mi NNE 3.5 mph - N/A   Haze
10:10 AM 98.6 °F 44.6 °F 16% 29.89 in 3.1 mi NNE 4.6 mph - N/A   Haze
10:40 AM 98.6 °F 46.4 °F 17% 29.89 in 3.1 mi North 4.6 mph - N/A   Haze
11:10 AM 102.2 °F 48.2 °F 16% 29.86 in 3.1 mi Variable 2.3 mph - N/A   Haze
11:30 AM 100 °F 51 °F 11% 29.80 in 2 mi NW 2.3 mph - -   Haze
12:10 PM 105.8 °F 48.2 °F 14% 29.86 in 3.1 mi Variable 2.3 mph - N/A   Haze
12:40 PM 105.8 °F 46.4 °F 14% 29.83 in 3.1 mi NW 3.5 mph - N/A   Haze
1:10 PM 105.8 °F 44.6 °F 13% 29.80 in 3.1 mi South 3.5 mph - N/A   Haze
1:40 PM 109.4 °F 46.4 °F 12% 29.80 in 3.1 mi NE 3.5 mph - N/A   Haze
2:10 PM 109.4 °F 44.6 °F 11% 29.77 in 3.1 mi SW 4.6 mph - N/A   Haze
2:30 PM 104 °F 47 °F 8% 29.69 in 2 mi SW 5.8 mph - -   Haze
2:40 PM 109.4 °F 44.6 °F 11% 29.74 in 3.1 mi SSW 2.3 mph - N/A   Haze
3:10 PM 107.6 °F 46.4 °F 13% 29.74 in 3.1 mi SSE 3.5 mph - N/A   Haze
3:40 PM 109.4 °F 48.2 °F 13% 29.74 in 3.1 mi WSW 6.9 mph - N/A   Haze
4:10 PM 107.6 °F 48.2 °F 14% 29.74 in 3.1 mi SSW 5.8 mph - N/A   Haze
5:10 PM 105.8 °F 48.2 °F 14% 29.74 in 3.1 mi SSW 6.9 mph - N/A   Haze
5:30 PM 101 °F 52 °F 12% 29.67 in 2 mi South 6.9 mph - -   Haze
6:10 PM 100.4 °F 46.4 °F 16% 29.74 in 3.1 mi South 4.6 mph - N/A   Haze
6:40 PM 96.8 °F 46.4 °F 18% 29.77 in 3.1 mi SSE 3.5 mph - N/A   Haze
7:10 PM 93.2 °F 46.4 °F 20% 29.77 in 3.1 mi Calm Calm - N/A   Haze
7:40 PM 93.2 °F 44.6 °F 19% 29.77 in 3.1 mi SSE 6.9 mph - N/A   Haze
8:10 PM 93.2 °F 44.6 °F 19% 29.80 in 3.1 mi SSW 5.8 mph - N/A   Haze
8:30 PM 86 °F 56 °F 26% 29.75 in 2 mi West 3.5 mph - -   Haze
8:40 PM 93.2 °F 46.4 °F 20% 29.80 in 3.1 mi SW 3.5 mph - N/A   Haze
9:10 PM 91.4 °F 46.4 °F 21% 29.83 in 3.1 mi WNW 3.5 mph - N/A   Haze
10:10 PM 87.8 °F 48.2 °F 25% 29.83 in 3.1 mi Calm Calm - N/A   Haze
11:30 PM 84 °F 53 °F 24% 29.79 in 2 mi West 4.6 mph - -   Haze
11:40 PM 86.0 °F 48.2 °F 27% 29.83 in 3.1 mi WNW 5.8 mph - N/A   Haze